Location: Newark
(48.1500°N, 2.9667°W)
Time: 10:54:58
(UTC+00:00)

A-11 Canister half - Pass Details

Date: 23 January 2020
Orbit: 1524 x 1684 km, 47.3° (Epoch: 19 February)

Event Time Altitude Azimuth Distance (km) Brightness Sun altitude
Rises 23:07:52 0° 285° (WNW) 4,747 11.9 -57.4°
Reaches altitude 10° 23:10:56 10° 283° (WNW) 3,781 11.3 -57.7°
Enters shadow 23:11:40 13° 282° (WNW) 3,553 11.1 -57.8°
Maximum altitude 23:20:25 66° 204° (SSW) 1,741 - -58.5°
Drops below altitude 10° 23:30:13 10° 126° (SE) 3,897 - -59.3°
Sets 23:33:25 0° 123° (ESE) 4,899 - -59.5°
